TimeMST,TemperatureF,Dew PointF,Humidity,Sea Level PressureIn,VisibilityMPH,Wind Direction,Wind SpeedMPH,Gust SpeedMPH,PrecipitationIn,Events,Conditions,WindDirDegrees,DateUTC
12:56 AM,23.0,18.0,81,29.92,10.0,WNW,5.8,-,N/A,,Clear,290,2013-02-08 07:56:00
1:56 AM,24.1,17.1,75,29.94,10.0,West,5.8,-,N/A,,Clear,270,2013-02-08 08:56:00
2:56 AM,23.0,17.1,78,29.95,10.0,WNW,6.9,-,N/A,,Clear,290,2013-02-08 09:56:00
3:56 AM,23.0,17.1,78,29.94,10.0,North,9.2,-,N/A,,Clear,350,2013-02-08 10:56:00
4:56 AM,19.9,15.1,81,29.97,10.0,West,4.6,-,N/A,,Clear,260,2013-02-08 11:56:00
5:56 AM,16.0,12.0,84,30.01,10.0,WNW,4.6,-,N/A,,Clear,290,2013-02-08 12:56:00
6:56 AM,23.0,16.0,74,30.01,10.0,West,9.2,-,N/A,,Clear,260,2013-02-08 13:56:00
7:56 AM,21.9,16.0,78,30.02,10.0,West,6.9,-,N/A,,Clear,270,2013-02-08 14:56:00
8:56 AM,25.0,18.0,75,30.03,10.0,WNW,4.6,-,N/A,,Clear,300,2013-02-08 15:56:00
9:56 AM,34.0,21.9,61,30.00,10.0,West,5.8,-,N/A,,Clear,280,2013-02-08 16:56:00
10:56 AM,39.0,19.9,46,30.00,10.0,WNW,8.1,-,N/A,,Clear,290,2013-02-08 17:56:00
11:56 AM,43.0,17.1,35,29.97,10.0,West,6.9,-,N/A,,Clear,280,2013-02-08 18:56:00
12:56 PM,44.1,15.1,31,29.96,10.0,Variable,3.5,-,N/A,,Clear,0,2013-02-08 19:56:00
1:56 PM,50.0,15.1,25,29.92,10.0,WNW,5.8,-,N/A,,Clear,300,2013-02-08 20:56:00
2:56 PM,51.1,12.9,22,29.91,10.0,SW,6.9,-,N/A,,Clear,230,2013-02-08 21:56:00
3:56 PM,48.0,10.9,22,29.91,10.0,Calm,Calm,-,N/A,,Partly Cloudy,0,2013-02-08 22:56:00
4:56 PM,43.0,12.9,30,29.93,10.0,West,4.6,-,N/A,,Clear,280,2013-02-08 23:56:00
5:56 PM,30.9,16.0,54,29.99,10.0,West,8.1,-,N/A,,Clear,280,2013-02-09 00:56:00
6:56 PM,27.0,16.0,63,29.99,10.0,North,-9999.0,-,N/A,,Clear,0,2013-02-09 01:56:00
7:56 PM,23.0,15.1,72,30.00,10.0,WNW,11.5,-,N/A,,Clear,290,2013-02-09 02:56:00
8:56 PM,24.1,16.0,71,30.00,10.0,WNW,9.2,-,N/A,,Clear,290,2013-02-09 03:56:00
9:56 PM,21.0,14.0,74,29.99,10.0,NW,6.9,-,N/A,,Clear,320,2013-02-09 04:56:00
10:56 PM,19.9,14.0,78,29.98,10.0,WNW,10.4,-,N/A,,Clear,290,2013-02-09 05:56:00
11:56 PM,19.9,12.9,74,29.97,10.0,WNW,8.1,-,N/A,,Clear,290,2013-02-09 06:56:00